Regional Weather Roundup
Issued by NWS

Home | Current Version | Previous Version | Text Only | Print | Product List | Glossary Off
Versions: 1 2 3 4 5 6 7 8 9 10 11 12 13 14 15 16 17 18 19 20 21 22 23 24 25 26 27 28 29 30 31 32 33 34 35 36 37 38 39 40 41 42 43 44 45 46 47 48 49 50

000
ASUS43 KMKX 040021
RWRWI

WISCONSIN REGIONAL WEATHER ROUNDUP
NATIONAL WEATHER SERVICE MILWAUKEE/SULLIVAN WI
700 PM CDT FRI JUL 03 2015

NOTE: "FAIR" INDICATES FEW OR NO CLOUDS BELOW 12,000 FEET WITH NO
SIGNIFICANT WEATHER AND/OR OBSTRUCTIONS TO VISIBILITY.

WIZ001-002-006>008-014>016-023>028-040100-
NORTHWEST WISCONSIN

CITY           SKY/WX    TMP DP  RH WIND       PRES   REMARKS
SUPERIOR ARPT  MOSUNNY   78  59  52 N8        29.84S
6HR MIN TEMP:  77; 6HR MAX TEMP:  81;

ASHLAND        SUNNY     77  66  68 W3        29.85S HAZE
6HR MIN TEMP:  75; 6HR MAX TEMP:  79;

HAYWARD        LGT RAIN  74  63  68 W6        29.90R
6HR MIN TEMP:  73; 6HR MAX TEMP:  77; 6HR PCP: TRACE;

SIREN          PTSUNNY   75  64  67 SW3       29.90R
6HR MIN TEMP:  75; 6HR MAX TEMP:  79;

CUMBERLAND     MOSUNNY   72  59  64 SW5       29.91S
RICE LAKE      MOSUNNY   74  59  57 SW6       29.91S
6HR MIN TEMP:  74; 6HR MAX TEMP:  77;

CHETEK         MOSUNNY   74  61  63 S5        29.90F
6HR MIN TEMP:  74; 6HR MAX TEMP:  77;

LADYSMITH      CLOUDY    74  60  61 SW6       29.92S
6HR MIN TEMP:  74; 6HR MAX TEMP:  77;

EAU CLAIRE     CLOUDY    74  58  57 SW6       29.90S
6HR MIN TEMP:  74; 6HR MAX TEMP:  78;

MENOMONIE      MOSUNNY   75  58  54 SW8       29.91S
6HR MIN TEMP:  75; 6HR MAX TEMP:  78;

NEW RICHMOND   MOSUNNY   74  60  61 W6        29.90F
6HR MIN TEMP:  74; 6HR MAX TEMP:  78;

OSCEOLA        SUNNY     76  61  59 SW7       29.92F
6HR MIN TEMP:  76; 6HR MAX TEMP:  80;

$$

WIZ003>005-009-010-017-018-040100-
NORTH CENTRAL WISCONSIN

CITY           SKY/WX    TMP DP  RH WIND       PRES   REMARKS
MANITOWISH WTR MOSUNNY   72  63  72 SW6       29.88F
6HR MIN TEMP:  69; 6HR MAX TEMP:  74;

ARBOR VITAE    SUNNY     72  60  67 W6        29.90S
6HR MIN TEMP:  72; 6HR MAX TEMP:  77;

WOODRUFF       SUNNY     72  60  67 W6        29.90S
6HR MIN TEMP:  72; 6HR MAX TEMP:  77;

RHINELANDER    SUNNY     72  58  61 W9        29.91F
6HR MIN TEMP:  72; 6HR MAX TEMP:  75;

EAGLE RIVER    SUNNY     72  58  61 W7        29.89F
LAND O LAKES   PTSUNNY   73  59  60 W7        29.90S
6HR MIN TEMP:  71; 6HR MAX TEMP:  75;

PHILLIPS       MOSUNNY   73  61  66 SW6       29.90S
6HR MIN TEMP:  71; 6HR MAX TEMP:  74;

TOMAHAWK       MOSUNNY   71  58  62 W5        29.91F
6HR MIN TEMP:  71; 6HR MAX TEMP:  74;

MEDFORD        CLOUDY    71  58  63 SW6       29.92S
6HR MIN TEMP:  71; 6HR MAX TEMP:  74;

MERRILL        CLOUDY    72  58  62 W6        29.92S
6HR MIN TEMP:  72; 6HR MAX TEMP:  75;

$$

WIZ029-030-035-036-043>047-040100-
CENTRAL WISCONSIN

CITY           SKY/WX    TMP DP  RH WIND       PRES   REMARKS
WAUSAU         PTSUNNY   74  54  49 W7        29.90S
6HR MIN TEMP:  73; 6HR MAX TEMP:  77;

MOSINEE        MOSUNNY   72  59  64 W3        29.92S
MARSHFIELD     SUNNY     73  56  54 W7        29.91F
6HR MIN TEMP:  73; 6HR MAX TEMP:  76;

STEVENS POINT  SUNNY     73  55  52 W3        29.91S
6HR MIN TEMP:  70; 6HR MAX TEMP:  74;

WAUPACA        SUNNY     76  56  48 SW6       29.90S
6HR MIN TEMP:  75; 6HR MAX TEMP:  79;

WAUTOMA        SUNNY     76  56  49 W8        29.91F
6HR MIN TEMP:  75; 6HR MAX TEMP:  80;

WISC RAPIDS    SUNNY     75  54  47 W7        29.92S
6HR MIN TEMP:  73; 6HR MAX TEMP:  78;

CAMP DOUGLAS   SUNNY     74  63  69 W6        29.91S
6HR MIN TEMP:  74; 6HR MAX TEMP:  78;

$$

WIZ011>013-019>022-031-037>040-048>050-040100-
NORTHEAST WISCONSIN

CITY           SKY/WX    TMP DP  RH WIND       PRES   REMARKS
ANTIGO         PTSUNNY   69  57  65 W7        29.92S
SHAWANO        MOSUNNY   76  55  48 W6        29.89S
6HR MIN TEMP:  75; 6HR MAX TEMP:  78;

OCONTO         PTSUNNY   73  55  53 SW3       29.87F
6HR MIN TEMP:  73; 6HR MAX TEMP:  76;

STURGEON BAY   PTSUNNY   72  54  53 S7        29.91F
6HR MIN TEMP:  70; 6HR MAX TEMP:  73;

GREEN BAY      SUNNY     74  54  49 SW5       29.89F
6HR MIN TEMP:  73; 6HR MAX TEMP:  76;

MANITOWOC      MOSUNNY   69  52  54 MISG      29.91F
6HR MIN TEMP:  69; 6HR MAX TEMP:  73;

APPLETON       PTSUNNY   73  54  49 SW6       29.91F
CLINTONVILLE   MOSUNNY   73  54  49 W6        29.89S
OSHKOSH        SUNNY     74  53  48 SW5       29.90F
6HR MIN TEMP:  73; 6HR MAX TEMP:  76;

$$

WIZ032>034-041-042-053>061-040100-
SOUTHWEST WISCONSIN

CITY           SKY/WX    TMP DP  RH WIND       PRES   REMARKS
LA CROSSE      SUNNY     77  58  51 SW6       29.90F
6HR MIN TEMP:  75; 6HR MAX TEMP:  79;

SPARTA         SUNNY     75  55  49 W6        29.92F
6HR MIN TEMP:  74; 6HR MAX TEMP:  78;

VIROQUA        SUNNY     73  57  57 W5        29.94S
6HR MIN TEMP:  73; 6HR MAX TEMP:  76;

BOSCOBEL       SUNNY     75  58  55 CALM      29.93S
6HR MIN TEMP:  75; 6HR MAX TEMP:  78;

PRAIRIE DU CHI SUNNY     74  56  52 CALM      29.92S
6HR MIN TEMP:  72; 6HR MAX TEMP:  76;

PLATTEVILLE    SUNNY     73  55  53 NW5       29.94F
6HR MIN TEMP:  72; 6HR MAX TEMP:  75;

$$

WIZ056-057-062-063-064-067-068-040100-
SOUTH CENTRAL WISCONSIN

CITY           SKY/WX    TMP DP  RH WIND       PRES   REMARKS
REEDSBURG      SUNNY     73  59  61 SW5       29.92S
6HR MIN TEMP:  72; 6HR MAX TEMP:  75;

BARABOO/DELLS  SUNNY     72  55  55 W5        29.92F
6HR MIN TEMP:  72; 6HR MAX TEMP:  76;

LONE ROCK      SUNNY     74  58  57 W6        29.92F
6HR MIN TEMP:  72; 6HR MAX TEMP:  77;

MINERAL POINT  SUNNY     72  55  56 W6        29.94S
MADISON        MOSUNNY   74  52  46 NW3       29.92F
6HR MIN TEMP:  72; 6HR MAX TEMP:  77;

MIDDLETON      SUNNY     73  54  51 W3        29.93F
6HR MIN TEMP:  73; 6HR MAX TEMP:  77;

WATERTOWN      SUNNY     73  56  56 CALM      29.91F
6HR MIN TEMP:  72; 6HR MAX TEMP:  75;

MONROE         SUNNY     72  55  56 NW5       29.94S
JANESVILLE     SUNNY     75  55  50 NW8       29.92F
$$

WIZ051-052-058>065-066-070>072-040100-
SOUTHEAST WISCONSIN

CITY           SKY/WX    TMP DP  RH WIND       PRES   REMARKS
MILWAUKEE      PTSUNNY   67  52  58 SE6       29.92F
6HR MIN TEMP:  67; 6HR MAX TEMP:  74;

WAUKESHA       SUNNY     72  54  53 NW7       29.93S
MILWAUKEE/TIMM SUNNY     72  45  37 SE5       29.92F
RACINE         MOSUNNY   68  52  56 SE7       29.94S
6HR MIN TEMP:  68; 6HR MAX TEMP:  72;

BURLINGTON     SUNNY     70  58  64 NW3       29.92S
6HR MIN TEMP:  70; 6HR MAX TEMP:  75;

KENOSHA        SUNNY     69  52  54 SE7       29.93S
6HR MIN TEMP:  69; 6HR MAX TEMP:  75;

FOND DU LAC    SUNNY     73  53  49 SW5       29.91F
6HR MIN TEMP:  73; 6HR MAX TEMP:  76;

SHEBOYGAN      SUNNY     69  51  52 S10       29.91F
6HR MIN TEMP:  69; 6HR MAX TEMP:  75;

WEST BEND      SUNNY     70  50  49 E3        29.92S
JUNEAU         SUNNY     71  53  52 W3        29.93S
6HR MIN TEMP:  71; 6HR MAX TEMP:  74;

$$

LSZ147-162-040100-
LAKE SUPERIOR

STATION/POSITION TIME  TEMP    WIND        PRES    WAVE
                       AIR SEA DIR/SP/G            HT/PER
                 (UTC) (F)     (DEG/KT/KT) (MB)    (FT/S)
W MID LAKE BUOY  2350   53 39  210/  6/  6 1010.1F   1/ 4
DEVILS ISLAND    0000   71     280/  9/ 10 1010.2F
SAXON HARBOR     2300   78        CALM     1010.5S
$$

LMZ867-665-643>646-040100-
LAKE MICHIGAN

STATION/POSITION TIME  TEMP    WIND        PRES    WAVE
                       AIR SEA DIR/SP/G            HT/PER
                 (UTC) (F)     (DEG/KT/KT) (MB)    (FT/S)


USA.gov is the U.S. government's official web portal to all federal, state and local government web resources and services.